GW1938 Weather Reports


time (UTC)temp
F
wind
direction
speed
knots
gust
knots
rain 1hr
in
rain 24hr
in
rain mn
in
humidity
%
barometer
mb
20260904235045 68 53 2.6 3.5 0.00 0.00 0.00 60 1014.0
20260904234542 69 51 2.6 5.2 0.00 0.00 0.00 61 1014.2
20260904234040 71 33 1.7 3.5 0.00 0.00 0.00 58 1014.3
20260904233537 71 341 1.7 2.6 0.00 0.00 0.00 59 1014.4
20260904233035 71 337 1.7 2.6 0.00 0.00 0.00 51 1014.4
20260904232534 72 330 1.7 2.6 0.00 0.00 0.00 46 1014.5
20260904232031 73 330 2.6 3.5 0.00 0.00 0.00 48 1014.6
20260904231530 72 320 1.7 2.6 0.00 0.00 0.00 47 1014.7
20260904231029 71 321 1.7 3.5 0.00 0.00 0.00 48 1014.7
20260904230025 70 325 3.5 4.3 0.00 0.00 0.00 56 1014.8
20260904225020 69 325 3.5 6.1 0.00 0.00 0.00 54 1015.0
20260904224519 71 336 4.3 5.2 0.00 0.00 0.00 50 1015.0
20260904224017 71 350 4.3 5.2 0.00 0.00 0.00 52 1015.1
20260904223012 71 345 4.3 5.2 0.00 0.00 0.00 52 1015.0
20260904222510 70 345 3.5 5.2 0.00 0.00 0.00 54 1015.1
20260904222007 69 343 4.3 5.2 0.00 0.00 0.00 56 1015.0
20260904221506 67 344 3.5 5.2 0.00 0.00 0.00 58 1015.1
20260904221004 66 342 4.3 6.1 0.00 0.00 0.00 59 1015.1
20260904220500 65 342 4.3 6.1 0.00 0.00 0.00 61 1015.1
20260904215958 65 346 4.3 7.0 0.00 0.00 0.00 60 1015.2
20260904215455 65 344 4.3 5.2 0.00 0.00 0.00 60 1015.3
20260904214953 65 342 4.3 5.2 0.00 0.00 0.00 59 1015.3
20260904214452 65 336 4.3 6.1 0.00 0.00 0.00 59 1015.2
20260904213949 65 329 5.2 8.7 0.00 0.00 0.00 60 1015.3
20260904213447 64 321 7.0 9.6 0.00 0.00 0.00 60 1015.2
20260904212946 64 316 7.0 9.6 0.00 0.00 0.00 62 1015.2
20260904212444 64 314 6.1 7.8 0.00 0.00 0.00 64 1015.1
20260904211940 64 322 5.2 7.8 0.00 0.00 0.00 64 1015.2
20260904211438 63 329 5.2 7.0 0.00 0.00 0.00 66 1015.2
20260904210936 62 332 6.1 7.8 0.00 0.00 0.00 68 1015.2
20260904210434 62 330 7.0 10.4 0.00 0.00 0.00 69 1015.0
20260904205933 61 333 7.8 10.4 0.00 0.00 0.00 69 1015.0
20260904204929 60 333 7.0 7.8 0.00 0.00 0.00 75 1014.9
20260904203931 59 332 6.1 8.7 0.00 0.00 0.00 77 1015.0
20260904203420 59 333 6.1 7.8 0.00 0.00 0.00 77 1015.0
20260904202919 59 334 6.1 9.6 0.00 0.00 0.00 79 1015.0
20260904202414 59 337 6.1 8.7 0.00 0.00 0.00 80 1015.1
20260904201912 58 335 5.2 7.0 0.00 0.00 0.00 80 1015.2
20260904201410 58 335 5.2 7.0 0.00 0.00 0.00 80 1015.1
20260904200909 58 334 5.2 6.1 0.00 0.00 0.00 80 1015.1
20260904195903 58 324 7.0 10.4 0.00 0.00 0.00 80 1015.2
20260904195402 58 315 7.8 11.3 0.00 0.00 0.00 81 1015.2
20260904194901 58 322 6.1 8.7 0.00 0.00 0.00 83 1015.2
20260904193857 57 334 4.3 5.2 0.00 0.00 0.00 84 1015.1
20260904193356 57 338 3.5 4.3 0.00 0.00 0.00 82 1015.1
20260904192854 58 345 3.5 3.5 0.00 0.00 0.00 82 1015.1
20260904192353 58 343 2.6 3.5 0.00 0.00 0.00 81 1015.0
20260904191851 58 348 2.6 4.3 0.00 0.00 0.00 80 1015.0
20260904191350 58 342 2.6 3.5 0.00 0.00 0.00 82 1015.0
20260904190345 58 343 4.3 6.1 0.00 0.00 0.00 80 1014.9
20260904185844 58 343 4.3 6.1 0.00 0.00 0.00 80 1014.9
20260904185343 58 343 4.3 7.0 0.00 0.00 0.00 79 1014.8
20260904184842 59 341 5.2 6.1 0.00 0.00 0.00 79 1014.7
20260904183837 60 337 6.1 7.0 0.00 0.00 0.00 77 1014.7
20260904183336 60 333 6.1 8.7 0.00 0.00 0.00 75 1014.7
20260904182835 60 335 6.1 8.7 0.00 0.00 0.00 75 1014.7
20260904181831 61 318 7.8 10.4 0.00 0.00 0.00 75 1014.7
20260904181330 61 304 7.8 10.4 0.00 0.00 0.00 74 1014.6
20260904180829 61 306 7.0 9.6 0.00 0.00 0.00 76 1014.7
20260904180327 60 304 6.1 8.7 0.00 0.00 0.00 75 1014.6
20260904175322 61 312 7.8 9.6 0.00 0.00 0.00 70 1014.8
20260904174821 60 323 7.0 10.4 0.00 0.00 0.00 71 1014.8
20260904173815 60 320 5.2 7.0 0.00 0.00 0.00 72 1015.0
20260904172811 60 319 6.1 8.7 0.00 0.00 0.00 68 1015.1
20260904172309 60 310 7.0 8.7 0.00 0.00 0.00 73 1015.1
20260904171305 60 282 4.3 5.2 0.00 0.00 0.00 72 1015.2
20260904170803 60 282 3.5 4.3 0.00 0.00 0.00 70 1015.3
20260904165758 61 305 6.1 7.8 0.00 0.00 0.00 68 1015.3
20260904165257 61 305 7.0 8.7 0.00 0.00 0.00 66 1015.3
20260904164253 60 295 6.1 8.7 0.00 0.00 0.00 70 1015.6
20260904163249 60 325 6.1 8.7 0.00 0.00 0.00 73 1015.7
20260904162748 60 330 5.2 7.8 0.00 0.00 0.00 74 1015.8
20260904160233 61 296 5.2 6.1 0.00 0.00 0.00 68 1016.4
20260904155732 61 299 4.3 7.0 0.00 0.00 0.00 69 1016.5
20260904155230 61 292 4.3 5.2 0.00 0.00 0.00 67 1016.4
20260904154729 61 301 4.3 6.1 0.00 0.00 0.00 69 1016.4
20260904154228 61 307 3.5 5.2 0.00 0.00 0.00 74 1016.5
20260904153727 61 328 2.6 4.3 0.00 0.00 0.00 76 1016.5
20260904153226 60 332 2.6 5.2 0.00 0.00 0.00 76 1016.5
20260904152217 61 333 2.6 4.3 0.00 0.00 0.00 72 1016.4
20260904151715 62 316 4.3 6.1 0.00 0.00 0.00 71 1016.5
20260904151214 61 316 4.3 7.0 0.00 0.00 0.00 71 1016.5
20260904150712 61 320 4.3 7.0 0.00 0.00 0.00 72 1016.5
20260904145204 61 306 4.3 7.0 0.00 0.00 0.00 74 1016.6
20260904144703 61 309 4.3 7.0 0.00 0.00 0.00 75 1016.6
20260904144202 61 306 4.3 7.0 0.00 0.00 0.00 74 1016.6
20260904143701 62 307 4.3 6.1 0.00 0.00 0.00 76 1016.7
20260904142656 62 289 6.1 8.7 0.00 0.00 0.00 72 1016.7
20260904142155 62 307 8.7 13.0 0.00 0.00 0.00 68 1016.7
20260904141150 60 281 4.3 7.8 0.00 0.00 0.00 72 1016.7
20260904140649 60 280 4.3 5.2 0.00 0.00 0.00 72 1016.8
20260904140148 61 291 4.3 6.1 0.00 0.00 0.00 71 1016.8
20260904135647 61 303 6.1 8.7 0.00 0.00 0.00 70 1016.9
20260904135145 61 307 6.1 8.7 0.00 0.00 0.00 69 1016.9
20260904134644 61 318 5.2 7.8 0.00 0.00 0.00 71 1017.0
20260904134142 61 316 5.2 7.8 0.00 0.00 0.00 70 1016.9
20260904133641 61 312 4.3 7.0 0.00 0.00 0.00 70 1016.9
20260904132133 61 341 4.3 6.1 0.00 0.00 0.00 70 1017.0
20260904131632 61 349 3.5 5.2 0.00 0.00 0.00 70 1016.9
20260904131131 61 15 1.7 3.5 0.00 0.00 0.00 70 1017.0
20260904130630 61 42 0.9 1.7 0.00 0.00 0.00 72 1016.9
20260904125624 59 329 1.7 3.5 0.00 0.00 0.00 75 1017.0
20260904125124 59 346 2.6 3.5 0.00 0.00 0.00 77 1017.0
20260904124622 59 344 2.6 4.3 0.00 0.00 0.00 75 1017.1
20260904124120 60 332 1.7 3.5 0.00 0.00 0.00 75 1017.1
20260904123619 60 350 2.6 4.3 0.00 0.00 0.00 74 1017.2
20260904123118 60 355 2.6 4.3 0.00 0.00 0.00 74 1017.2
20260904122616 60 1 3.5 4.3 0.00 0.00 0.00 73 1017.2
20260904122115 60 6 3.5 3.5 0.00 0.00 0.00 71 1017.3
20260904121613 61 9 3.5 4.3 0.00 0.00 0.00 70 1017.3
20260904120608 60 360 3.5 5.2 0.00 0.00 0.00 70 1017.4
20260904120107 61 352 3.5 5.2 0.00 0.00 0.00 70 1017.4
20260904115605 61 353 3.5 6.1 0.00 0.00 0.00 69 1017.4
20260904115105 61 354 3.5 5.2 0.00 0.00 0.00 69 1017.5
20260904114604 61 5 3.5 5.2 0.00 0.00 0.00 69 1017.4
20260904113056 61 13 2.6 4.3 0.00 0.00 0.00 71 1017.5
20260904112555 60 7 3.5 5.2 0.00 0.00 0.00 71 1017.5
20260904111046 61 7 5.2 6.1 0.00 0.00 0.00 70 1017.3
20260904110545 61 9 4.3 9.6 0.00 0.00 0.00 68 1017.3
20260904110043 62 8 5.2 9.6 0.00 0.00 0.00 68 1017.3
20260904105542 62 11 5.2 7.0 0.00 0.00 0.00 67 1017.3
20260904105040 62 24 5.2 7.8 0.00 0.00 0.00 66 1017.2
20260904104539 62 43 5.2 7.0 0.00 0.00 0.00 66 1017.0
20260904104038 62 48 4.3 7.0 0.00 0.00 0.00 65 1017.1
20260904103537 62 38 4.3 7.0 0.00 0.00 0.00 65 1017.1
20260904103036 62 44 3.5 5.2 0.00 0.00 0.00 65 1017.0
20260904102535 61 14 3.5 6.1 0.00 0.00 0.00 67 1016.9
20260904102034 61 18 2.6 5.2 0.00 0.00 0.00 68 1016.9
20260904101533 61 16 3.5 6.1 0.00 0.00 0.00 68 1016.9
20260904100528 62 16 4.3 7.0 0.00 0.00 0.00 67 1016.8
20260904095523 62 15 5.2 7.8 0.00 0.00 0.00 67 1016.7
20260904095022 62 9 5.2 8.7 0.00 0.00 0.00 70 1016.7
20260904094520 63 18 5.2 7.0 0.00 0.00 0.00 72 1016.7
20260904094018 63 24 5.2 7.8 0.00 0.00 0.00 71 1016.7
20260904093517 63 23 5.2 8.7 0.00 0.00 0.00 71 1016.7
20260904093015 63 23 5.2 8.7 0.00 0.00 0.00 70 1016.7
20260904092514 63 28 5.2 7.8 0.00 0.00 0.00 70 1016.6
20260904092013 63 30 5.2 8.7 0.00 0.00 0.00 71 1016.5
20260904091512 63 21 5.2 8.7 0.00 0.00 0.00 72 1016.6
20260904091011 63 28 4.3 7.8 0.00 0.00 0.00 72 1016.5
20260904090510 63 36 4.3 7.8 0.00 0.00 0.00 71 1016.5
20260904085001 63 42 6.1 10.4 0.00 0.00 0.00 70 1016.2
20260904083941 64 42 6.1 11.3 0.00 0.00 0.00 69 1016.2
20260904082937 64 43 7.0 9.6 0.00 0.00 0.00 67 1016.1
20260904082436 64 38 6.1 9.6 0.00 0.00 0.00 66 1016.0
20260904081935 64 36 6.1 8.7 0.00 0.00 0.00 67 1016.0
20260904081434 64 35 5.2 7.0 0.00 0.00 0.00 66 1016.1
20260904080932 64 34 5.2 8.7 0.00 0.00 0.00 67 1016.0
20260904080431 64 34 6.1 10.4 0.00 0.00 0.00 68 1015.9
20260904075425 64 45 7.8 11.3 0.00 0.00 0.00 70 1016.0
20260904074421 64 44 7.8 11.3 0.00 0.00 0.00 69 1015.9
20260904073920 64 47 7.8 12.2 0.00 0.00 0.00 69 1015.8
20260904072916 64 52 8.7 13.0 0.00 0.00 0.00 67 1015.6
20260904072415 64 49 8.7 14.8 0.00 0.00 0.00 66 1015.6
20260904071410 64 54 9.6 13.0 0.00 0.00 0.00 66 1015.8
20260904070909 64 52 8.7 13.0 0.00 0.00 0.00 64 1015.6
20260904070355 64 63 10.4 13.0 0.00 0.00 0.00 64 1015.7
20260904065854 64 61 10.4 13.0 0.00 0.00 0.00 62 1015.7
20260904065353 64 59 10.4 13.0 0.00 0.00 0.00 62 1015.8
20260904064852 65 52 8.7 12.2 0.00 0.00 0.00 61 1015.8
20260904064350 65 58 9.6 13.9 0.00 0.00 0.00 61 1015.7
20260904063346 65 71 10.4 13.9 0.00 0.00 0.00 61 1015.8
20260904062845 65 63 9.6 13.0 0.00 0.00 0.00 60 1015.8
20260904062344 65 63 10.4 13.0 0.00 0.00 0.00 59 1015.8
20260904061339 65 63 9.6 13.9 0.00 0.00 0.00 59 1015.9
20260904060335 65 73 10.4 13.0 0.00 0.00 0.00 60 1015.9
20260904055834 65 73 9.6 12.2 0.00 0.00 0.00 60 1016.0
20260904055311 65 75 9.6 13.0 0.00 0.00 0.00 59 1016.0
20260904054810 66 86 8.7 13.0 0.00 0.00 0.00 59 1016.0
20260904054309 66 81 9.6 14.8 0.00 0.00 0.00 60 1016.0
20260904053807 67 85 10.4 13.9 0.00 0.00 0.00 58 1016.2
20260904053306 67 87 9.6 13.0 0.00 0.00 0.00 57 1016.1
20260904052806 67 85 9.6 13.9 0.00 0.00 0.00 55 1016.1
20260904052307 67 88 9.6 13.0 0.00 0.00 0.00 56 1016.2
20260904051804 67 86 9.6 13.0 0.00 0.00 0.00 55 1016.2
20260904051302 68 86 10.4 13.0 0.00 0.00 0.00 55 1016.2
20260904050801 69 91 8.7 11.3 0.00 0.00 0.00 53 1016.3
20260904050300 68 88 8.7 11.3 0.00 0.00 0.00 54 1016.4
20260904045800 69 91 7.8 10.4 0.00 0.00 0.00 52 1016.5
20260904045258 69 97 8.7 9.6 0.00 0.00 0.00 53 1016.5
20260904044757 69 96 8.7 11.3 0.00 0.00 0.00 50 1016.5
20260904044255 69 91 10.4 13.0 0.00 0.00 0.00 51 1016.5
20260904043734 71 91 9.6 12.2 0.00 0.00 0.00 49 1016.5
20260904042730 71 108 7.0 9.6 0.00 0.00 0.00 50 1016.5
20260904042229 71 116 7.0 10.4 0.00 0.00 0.00 49 1016.6
20260904041726 71 113 8.7 11.3 0.00 0.00 0.00 50 1016.7
20260904041225 71 114 7.8 10.4 0.00 0.00 0.00 48 1016.7
20260904040724 72 118 7.0 8.7 0.00 0.00 0.00 49 1016.7
20260904035632 72 118 8.7 10.4 0.00 0.00 0.00 47 1016.8
20260904035130 71 116 7.0 10.4 0.00 0.00 0.00 47 1016.8
20260904034630 71 115 6.1 8.7 0.00 0.00 0.00 46 1016.8
20260904034128 72 120 7.8 10.4 0.00 0.00 0.00 46 1016.8
20260904033627 71 118 8.7 10.4 0.00 0.00 0.00 47 1016.8
20260904032611 72 112 5.2 8.7 0.00 0.00 0.00 47 1016.9
20260904032110 72 116 5.2 7.0 0.00 0.00 0.00 47 1017.0
20260904031609 72 116 5.2 7.0 0.00 0.00 0.00 49 1017.0
20260904031107 72 118 5.2 7.0 0.00 0.00 0.00 44 1017.1
20260904030606 71 122 3.5 6.1 0.00 0.00 0.00 46 1017.2
20260904030105 71 109 4.3 7.0 0.00 0.00 0.00 48 1017.3
20260904024055 70 154 2.6 4.3 0.00 0.00 0.00 44 1017.8
20260904023553 70 243 2.6 4.3 0.00 0.00 0.00 40 1017.9
20260904023052 71 255 1.7 4.3 0.00 0.00 0.00 37 1018.0
20260904022551 70 248 1.7 3.5 0.00 0.00 0.00 38 1018.3
20260904022050 70 169 2.6 4.3 0.00 0.00 0.00 42 1018.4
20260904021549 69 196 1.7 4.3 0.00 0.00 0.00 43 1018.4
20260904021048 69 253 2.6 4.3 0.00 0.00 0.00 40 1018.4
20260904020547 69 247 3.5 5.2 0.00 0.00 0.00 40 1018.3
20260904015542 69 276 2.6 5.2 0.00 0.00 0.00 46 1018.5
20260904015041 69 284 2.6 5.2 0.00 0.00 0.00 41 1018.6
20260904014512 69 310 1.7 4.3 0.00 0.00 0.00 44 1018.6
20260904014011 68 324 2.6 6.1 0.00 0.00 0.00 47 1018.6
20260904013007 70 319 4.3 6.1 0.00 0.00 0.00 45 1018.8
20260904012506 70 315 6.1 7.0 0.00 0.00 0.00 44 1018.9
20260904011501 68 324 3.5 5.2 0.00 0.00 0.00 47 1019.1
20260904011000 71 318 5.2 7.8 0.00 0.00 0.00 47 1019.2
20260904010458 70 312 5.2 7.0 0.00 0.00 0.00 47 1019.3
20260904005957 69 312 5.2 7.8 0.00 0.00 0.00 45 1019.4
20260904005456 70 313 6.1 7.8 0.00 0.00 0.00 44 1019.6
20260904003948 69 319 4.3 7.8 0.00 0.00 0.00 47 1019.8
20260904003447 69 314 6.1 8.7 0.00 0.00 0.00 45 1019.8
20260904002946 68 315 5.2 8.7 0.00 0.00 0.00 47 1019.9
20260904002445 67 318 2.6 5.2 0.00 0.00 0.00 44 1020.0
20260904001944 66 292 3.5 8.7 0.00 0.00 0.00 50 1019.9
20260904001444 66 295 2.6 7.0 0.00 0.00 0.00 45 1019.8
20260904000943 66 315 1.7 4.3 0.00 0.00 0.00 46 1020.0
20260904000442 66 292 2.6 6.1 0.00 0.00 0.00 48 1020.1
20260903235940 66 306 2.6 7.8 0.00 0.00 0.00 47 1020.0